[[{"header":{"parameterUnit":"m.s-1","parameterCategory":1,"la1":30.2992,"la2":30.254,"lo1":-89.0895,"lo2":-89.0443,"dy":0.0025,"dx":0.0025,"nx":19,"ny":19,"refTime":"2026-03-31T21:00:00:Z","depth":0,"parameterNumber":2,"parameterNumberName":"U-component_of_WINDS"},"data":[0,0,0,-4.4529,-4.4532,-4.4661,-4.4662,-4.483,-4.4831,0,0,0,0,0,0,0,0,0,0,0,-4.4493,-4.4495,-4.4529,-4.4532,-4.4661,-4.4662,-4.4829,-4.4831,0,0,0,0,0,0,0,0,0,0,0,-4.4493,-4.4494,-4.4496,-4.4533,-4.4661,-4.4662,-4.4829,-4.473,0,0,0,0,0,0,0,0,0,0,-4.4604,-4.4574,-4.4494,-4.4496,-4.4534,-4.4661,-4.4662,-4.4726,-4.4736,-4.4773,0,-4.4806,0,-4.4822,-4.4843,-4.4843,0,0,0,-4.453,-4.4565,-4.4598,-4.4496,-4.4535,-4.4661,-4.4602,-4.4732,-4.4744,-4.4787,-4.4809,-4.4815,-4.4824,-4.4844,-4.4845,-4.5063,-4.5064,0,0,-4.4523,-4.4518,-4.4589,-4.4606,-4.4587,-4.4598,-4.4606,-4.4739,-4.4762,-4.4809,-4.4819,-4.4827,-4.4845,-4.4846,-4.5062,-4.5063,0,0,0,-4.4504,-4.4513,-4.4542,-4.4599,-4.4622,-4.4602,-4.4612,-4.4756,-4.4766,-4.482,-4.4829,-4.4846,-4.4848,-4.5061,-4.5063,-4.5112,0,0,0,-4.4499,-4.4502,-4.4539,-4.4537,-4.462,-4.4691,-4.4625,-4.4757,-4.4772,-4.4828,-4.4846,-4.485,-4.506,-4.5062,-4.5108,-4.5135,0,0,0,-4.4484,-4.45,-4.452,-4.4537,-4.4592,-4.4689,-4.4707,-4.476,-4.4777,-4.4843,-4.485,-4.5059,-4.5061,-4.5104,-4.5129,-4.5189,0,0,0,-4.4466,-4.4562,-4.452,-4.4631,-4.4591,-4.472,-4.4706,-4.4802,-4.4864,-4.4847,-4.506,-4.5062,-4.5103,-4.5125,-4.5185,-4.5237,-4.5258,0,0,-4.4583,-4.4576,-4.4641,-4.4608,-4.4742,-4.47,-4.4842,-4.4904,-4.4915,-4.5013,-4.5018,-4.5109,-4.5129,-4.5188,-4.5388,-4.5405,0,0,0,-4.4677,-4.4723,-4.476,-4.4821,-4.4872,-4.4917,-4.4958,-4.4982,-4.5065,-4.4965,-4.5149,-4.5161,-4.5196,-4.522,-4.5235,-4.5265,-4.5075,-4.5074,-4.5074,-4.4833,-4.4843,-4.4952,-4.4978,-4.5037,-4.508,-4.5128,-4.5166,-4.5159,-4.5203,-4.523,-4.535,-4.5379,-4.539,-4.5421,-4.5261,-4.5261,-4.5261,-4.5262,-4.5004,-4.5071,-4.5061,-4.5162,-4.5172,-4.5257,-4.5303,-4.5295,-4.5375,-4.533,-4.5361,-4.5308,-4.5409,-4.5436,-4.5265,-4.5265,-4.5264,-4.5264,-4.5264,-4.5105,-4.5138,-4.5167,-4.5255,-4.5323,-4.5347,-4.5424,-4.5431,-4.5438,-4.547,-4.5499,-4.5498,-4.5495,-4.5484,-4.5485,-4.5485,-4.5485,-4.5486,-4.5486,-4.5196,-4.5227,-4.5291,-4.5355,-4.5395,-4.5449,-4.5495,-4.5534,-4.5579,-4.5578,-4.5578,-4.5564,-4.5418,-4.5379,-4.5492,-4.5491,-4.549,-4.549,-4.5489,-4.5359,-4.5324,-4.5424,-4.5464,-4.554,-4.5605,-4.5616,-4.5695,-4.5729,-4.5766,-4.5749,-4.564,-4.5632,-4.562,-4.5587,-4.5748,-4.5748,-4.5748,-4.5748,-4.5441,-4.5439,-4.5543,-4.5606,-4.567,-4.569,-4.5801,-4.5839,-4.5871,-4.5893,-4.5872,-4.5831,-4.5819,-4.5817,-4.5801,-4.5771,-4.5974,-4.5974,-4.5974,-4.5541,-4.5546,-4.5638,-4.5672,-4.5732,-4.5783,-4.5888,-4.5961,-4.5991,-4.5984,-4.5909,-4.5899,-4.5833,-4.5812,-4.5798,-4.5773,-4.5718,0,0]},{"header":{"parameterUnit":"m.s-1","parameterCategory":1,"la1":30.2992,"la2":30.254,"lo1":-89.0895,"lo2":-89.0443,"dy":0.0025,"dx":0.0025,"nx":19,"ny":19,"refTime":"2026-03-31T21:00:00:Z","depth":0,"parameterNumber":3,"parameterNumberName":"V-component_of_WINDS"},"data":[0,0,0,2.9069,2.9071,2.9156,2.9157,2.9262,2.9263,0,0,0,0,0,0,0,0,0,0,0,2.9043,2.9043,2.9069,2.9071,2.9156,2.9157,2.9262,2.9263,0,0,0,0,0,0,0,0,0,0,0,2.9042,2.9043,2.9044,2.9071,2.9156,2.9157,2.9262,2.9198,0,0,0,0,0,0,0,0,0,0,2.9116,2.9091,2.9043,2.9044,2.9072,2.9156,2.9157,2.9195,2.9202,2.9222,0,2.9241,0,2.9254,2.927,2.9271,0,0,0,2.9071,2.9085,2.9109,2.9044,2.9073,2.9156,2.9118,2.9199,2.9207,2.9232,2.9243,2.9247,2.9256,2.9271,2.9271,2.9394,2.9394,0,0,2.9066,2.9057,2.9104,2.9114,2.9103,2.9115,2.9121,2.9204,2.9215,2.9243,2.9249,2.9258,2.9272,2.9272,2.9393,2.9394,0,0,0,2.9053,2.9053,2.9076,2.911,2.9126,2.9118,2.9124,2.9211,2.9219,2.9251,2.9259,2.9272,2.9274,2.9392,2.9393,2.9414,0,0,0,2.905,2.9045,2.9074,2.9069,2.9124,2.917,2.9129,2.9214,2.9223,2.9259,2.9272,2.9275,2.9392,2.9393,2.9412,2.9425,0,0,0,2.9037,2.9044,2.9056,2.9068,2.9105,2.9169,2.9182,2.9216,2.9229,2.9271,2.9275,2.9391,2.9393,2.941,2.9422,2.9456,0,0,0,2.902,2.9071,2.9057,2.9116,2.9104,2.9182,2.9181,2.9239,2.9277,2.9273,2.9392,2.9393,2.941,2.942,2.9454,2.9483,2.9494,0,0,2.9078,2.9077,2.9114,2.9103,2.9182,2.9169,2.925,2.9292,2.9303,2.9363,2.9366,2.9413,2.9422,2.9455,2.9559,2.9568,0,0,0,2.9129,2.9155,2.9177,2.9216,2.9252,2.9284,2.9316,2.9332,2.9384,2.9333,2.9434,2.944,2.946,2.9474,2.9481,2.95,2.9399,2.9399,2.9399,2.9196,2.9211,2.9273,2.9299,2.9336,2.9371,2.9402,2.9429,2.943,2.9455,2.9472,2.9533,2.955,2.9555,2.9574,2.9488,2.9488,2.9488,2.9488,2.9283,2.9323,2.9328,2.939,2.9405,2.9456,2.9492,2.9492,2.9542,2.952,2.9539,2.9514,2.9565,2.9582,2.949,2.949,2.9489,2.9489,2.9489,2.9329,2.9351,2.9373,2.9432,2.9476,2.95,2.9549,2.956,2.9571,2.9589,2.961,2.9609,2.9611,2.9598,2.9598,2.9599,2.9599,2.9599,2.9599,2.9368,2.9392,2.9433,2.9479,2.9507,2.9545,2.9583,2.961,2.9642,2.9647,2.9647,2.9647,2.9567,2.9547,2.9603,2.9602,2.9602,2.9601,2.9601,2.9451,2.9435,2.9499,2.9527,2.9583,2.9627,2.9643,2.9698,2.9722,2.9746,2.9743,2.9682,2.968,2.9675,2.9658,2.9739,2.9739,2.9739,2.9739,2.949,2.9492,2.9561,2.9607,2.9652,2.9673,2.9745,2.9776,2.9804,2.982,2.981,2.9789,2.9783,2.9785,2.9777,2.9762,2.9867,2.9868,2.9868,2.9543,2.955,2.9609,2.964,2.9686,2.9725,2.9793,2.9844,2.9872,2.9873,2.9833,2.9828,2.9794,2.9783,2.9781,2.9767,2.974,0,0]}]]